Regional Weather Roundup
Issued by NWS

Home | Current Version | Previous Version | Graphics & Text | Print | Product List | Glossary On
Versions: 1 2 3 4 5 6 7 8 9 10 11 12 13 14 15 16 17 18 19 20 21 22 23 24 25 26 27
000
ASUS45 KSLC 212110
RWRUT

UTAH REGIONAL WEATHER ROUNDUP
NATIONAL WEATHER SERVICE SALT LAKE CITY UT
300 PM MDT SUN MAY 21 2017

UTZ001>011-023>025-212200-

NORTHERN UTAH

CITY           SKY/WX    TMP DP  RH WIND       PRES   REMARKS
BRIGHAM CITY   MOSUNNY   61  43  51 CALM      30.21F
HILL AFB       MOSUNNY   58  40  50 NW3       30.21F
LOGAN          MOSUNNY   65  43  44 VRB3      30.19F
OGDEN          PTSUNNY   59  45  59 S6        30.20F
SALT LAKE CITY PTSUNNY   63  45  51 CALM      30.19F
TOOELE VALLEY  MOSUNNY   61  50  67 NW8       30.20F
WENDOVER       MOSUNNY   67  40  37 N14       30.20S
HEBER CITY     PTSUNNY   55  45  67 W8        30.21F
WEST JORDAN    MOSUNNY   60  56  85 SW8       30.22S

$$

UTZ011>015-024>027-212200-

CENTRAL/NORTHEAST UTAH

CITY           SKY/WX    TMP DP  RH WIND       PRES   REMARKS
PROVO AIRPORT  CLOUDY    60  45  57 NE8       30.21F
MOAB/CANYONLAN MOSUNNY   74  28  18 S12       30.08F
DELTA          PTSUNNY   66  36  32 W10       30.16F
PRICE          MOSUNNY   55  43  63 E9        30.22F
RICHFIELD      SUNNY     64  39  39 NE7G17    30.19F
ROOSEVELT      CLOUDY    61  36  39 W7        30.20S
VERNAL         CLOUDY    64  37  36 SW14      30.17F

$$

UTZ013>016-019>022-027-212200-

SOUTHERN UTAH

CITY           SKY/WX    TMP DP  RH WIND       PRES   REMARKS
BRYCE CANYON   CLOUDY    58  34  40 E9        30.24F
CEDAR CITY     PTSUNNY   71  29  21 MISG      30.12F
MILFORD        SUNNY     74  36  25 N18G26    30.12F
ST GEORGE      MOCLDY    85  30  13 VRB5      29.98F
HANKSVILLE     PTSUNNY   73  30  20 NW9       30.11F
KANAB          PTSUNNY   79  25  13 W13       30.12F
BLANDING       PTSUNNY   69  27  20 NW9       30.23F

$$

REGIONAL REPORTS     COLORADO/ARIZONA

CITY           SKY/WX    TMP DP  RH WIND       PRES   REMARKS
CRAIG, CO      CLOUDY    60  32  34 SW8       30.19S
GRAND JUNCTION MOSUNNY   71  28  20 W13       30.12F
RIFLE, CO      CLOUDY    66  24  20 W8        30.13F
MONTROSE, CO   CLOUDY    66  26  22 NW7       30.15F
CORTEZ, CO     SUNNY     70  24  17 W6        30.15F
COLORADO CITY    N/A     84  30  14 W15G24    30.12F
PAGE, AZ       MOSUNNY   82  29  14 NE8       30.05F
GRAND CANYON   MOSUNNY   71  25  17 VRB7G16   30.20F
KINGMAN, AZ    SUNNY     91  26   9 NW14      30.00F
FLAGSTAFF, AZ  MOSUNNY   70  20  15 E9        30.21F

$$

REGIONAL REPORTS    NEVADA/IDAHO/WYOMING

CITY           SKY/WX    TMP DP  RH WIND       PRES   REMARKS
LAS VEGAS, NV  MOSUNNY   95  20   6 E9G16     29.89F
ELY, NY        MOSUNNY   69  28  21 VRB7G17   30.20S
ELKO, NV       PTSUNNY   70  34  26 VRB3      30.20S
POCATELLO, ID  MOSUNNY   69  37  30 VRB7      30.20F
BURLEY, ID     SUNNY     68  43  40 N3        30.20F
FORT BRIDGER,  CLOUDY    57  35  43 W15G23    30.26R
EVANSTON, WY   CLOUDY    55  33  43 VRB5      30.23S
ROCK SPRINGS,  CLOUDY    56  36  47 NE9       30.23S
KEMMERER, WY     N/A     52  36  54 N17G24    30.26S

$$




USA.gov is the U.S. government's official web portal to all federal, state and local government web resources and services.